Location: ???????
(55.4362°N, 38.1183°E)
Time: 14:54:28
(UTC+00:00)

Oscar 11 - Pass Details

Date: 03 December 2021
Orbit: 611 x 625 km, 97.6° (Epoch: 25 January)

Event Time Altitude Azimuth Distance (km) Brightness Sun altitude
Rises 04:35:21 0° 7° (N) 2,926 10.3 -7.7°
Reaches altitude 10° 04:37:59 10° 351° (N) 2,012 9.3 -7.4°
Maximum altitude 04:41:14 21° 303° (WNW) 1,419 8.3 -7.0°
Drops below altitude 10° 04:44:29 10° 255° (WSW) 1,997 9.3 -6.6°
Sets 04:47:04 0° 239° (WSW) 2,897 10.2 -6.3°
